Tracking 24266 objects as of 9-Dec-2021
HD Live streaming from Space Station
objects crossing your sky now

BOBCAT-1

Track BOBCAT-1 now!
10-day predictions
BOBCAT-1 is classified as:


NORAD ID: 46922
Int'l Code: 1998-067RS
Perigee: 378.2 km
Apogee: 380.7 km
Inclination: 51.6 °
Period: 92.0 minutes
Semi major axis: 6750 km
RCS: Unknown
Launch date: November 20, 1998
Source: United States (US)
Launch site: TYURATAM MISSILE AND SPACE COMPLEX (TTMTR)

Uplink (MHz):
Downlink (MHz): 436.600
Beacon (MHz):
Mode: 9k6/38k4/57k6 GMSK
Call sign: BOBCAT-1
Status: Active

aabbcc
Your satellite tracking list
Your tracking list is empty




NASA's NSSDC Master Catalog

Two Line Element Set (TLE):
1 46922U 98067RS  21342.81725376  .00029571  00000-0  29574-3 0  9998
2 46922  51.6390 178.3123 0001829 156.8126 203.2952 15.65325025 62053
Source of the keplerian elements: AFSPC